Погода в Новостройке

Россия / Приморский край     46°11′02″N   133°56′02″E
темп.,
°C
ветер,
м/с
пор.,
м/с
влажн.,
%
обл.,
%
осадки,
мм/ч
давл.,
гПа
погр.,
м
28 сентября, вт
вт2801:00+15ююз41196100 2.2 1015525
04:00+15ююз3997100 4.1 1015524
07:00+15ююз369894 0.1 1016309
10:00+17юз239176 0.1 1016419
13:00+20юз236894 0.2 10151201
16:00+19ююз347595 0.2 1014457
19:00+16ю22891 0.0 101311
22:00+14юв22941 0.0 101325
29 сентября, ср
ср2901:00+14ю22955 0.0 101219
04:00+13ююв229546 0.0 101219
07:00+13юв2295100 0.0 101119
10:00+17ююв2478100 0.0 1011264
13:00+21ю4766100 0.0 1010993
16:00+22ююз5866100 0.0 10071370
19:00+17ююз338424 0.1 100730
22:00+15ю22905 0.1 100713
30 сентября, чт
чт3001:00+14юз229639 1.4 100644
04:00+13з2498100 1.8 1006141
07:00+12сз4990100 0.4 1007473
10:00+13сз47690 0.7 1009764
13:00+15зсз45473 0.0 10091391
16:00+15зсз45400 0.0 10091547
19:00+11зсз11570 0.0 101010
22:00+9всв11605 0.0 101010
1 октября, пт
пт101:00+8ююв1162100 0.0 101010
04:00+8ссв0061100 0.0 101010
07:00+7с11685 0.0 101112
10:00+11вюв11575 0.0 1011358
13:00+15з35492 0.0 10101498
16:00+15з4649100 0.0 10091877
19:00+11зсз226155 0.0 101127
22:00+8зюз22696 0.0 101212
2 октября, сб
сб201:00+6зюз11771 0.0 101310
04:00+6юз22804 0.0 101314
07:00+4юз22845 0.0 101413
10:00+10з12605 0.0 1015375
13:00+14з34445 0.0 10141890
16:00+14з444125 0.0 10131967
19:00+9зсз225930 0.0 101528
22:00+7зсз11645 0.0 101710